Waarnemingen

Advertentie
Mijn weer
Santander, Spanje (8023): temperatuur & dauwpunt: 17.07.2019 15:00:00 - 23.07.2019 15:00:00 (CEST)Santander, Spanje (8023): windsnelheid: 17.07.2019 15:00:00 - 23.07.2019 15:00:00 (CEST)Santander, Spanje (8023): windrichting: 17.07.2019 15:00:00 - 23.07.2019 15:00:00 (CEST)Santander, Spanje (8023): luchtdruk: 17.07.2019 15:00:00 - 23.07.2019 15:00:00 (CEST)Santander, Spanje (8023): zicht: 17.07.2019 15:00:00 - 23.07.2019 15:00:00 (CEST)Santander, Spanje (8023): neerslag: 17.07.2019 15:00:00 - 23.07.2019 15:00:00 (CEST)
Datum & Tijd tt [°C] td [°C] ff [km/u] ff [kn] dd ppp [hPa] vv [km] rr [mm]
23.07.2019 15:00:00 24,7 22,4 11 6 NW 1013,9 4,5 0,0
23.07.2019 14:00:00 24,0 21,9 22 12 W 1014,0 3,0 -
23.07.2019 13:00:00 22,2 20,5 24 13 W 1013,9 6 0,0
23.07.2019 12:00:00 21,8 19,5 11 6 WNW 1013,0 - 0,0
23.07.2019 11:00:00 24,0 18,9 16 9 W 1013,1 7 -
23.07.2019 10:00:00 27,6 22,8 15 8 ZZW 1013,8 18 0,0
23.07.2019 09:00:00 22,2 20,8 11 6 W 1013,5 9 0,0
23.07.2019 08:00:00 21,3 20,3 5 3 ZW 1013,8 10 -
23.07.2019 07:00:00 20,4 19,4 8 4 WZW 1013,4 6 0,0
23.07.2019 06:00:00 19,8 18,6 13 7 ZZO 1013,4 6 0,0
23.07.2019 05:00:00 20,5 19,3 4 2 O 1014,5 12 -
23.07.2019 04:00:00 20,8 19,8 26 14 O 1014,2 8 0,0
23.07.2019 03:00:00 20,4 19,4 15 8 O 1015,6 8 0,0
23.07.2019 02:00:00 20,7 19,7 9 5 ZZO 1017,0 10 -
23.07.2019 01:00:00 21,1 20,1 8 4 Z 1017,8 6 0,0
23.07.2019 00:00:00 21,0 19,8 8 4 WZW 1018,3 4,2 0,0
22.07.2019 23:00:00 21,7 20,2 8 4 W 1018,9 10 -
22.07.2019 22:00:00 21,5 20,0 2 1 N 1017,7 7 0,0
22.07.2019 21:00:00 21,5 19,6 8 4 NO 1017,8 8 0,0
22.07.2019 20:00:00 22,7 20,0 8 4 NO 1017,5 12 -
22.07.2019 19:00:00 23,2 20,5 11 6 ONO 1017,8 12 0,0
22.07.2019 18:00:00 23,4 20,5 15 8 ONO 1018,0 12 0,0
22.07.2019 17:00:00 23,4 20,3 13 7 NO 1018,6 12 -
22.07.2019 16:00:00 23,8 20,5 15 8 NO 1019,0 12 0,0
22.07.2019 15:00:00 24,1 20,8 16 9 ONO 1019,4 14 0,0
22.07.2019 14:00:00 23,8 20,5 18 10 ONO 1019,9 18 -
22.07.2019 13:00:00 23,6 20,3 22 12 ONO 1020,1 14 0,0
22.07.2019 12:00:00 23,3 20,4 21 11 ONO 1020,1 14 0,0
22.07.2019 11:00:00 22,7 20,4 21 11 O 1020,7 20 -
22.07.2019 10:00:00 22,6 20,3 18 10 O 1021,0 12 0,0
22.07.2019 09:00:00 21,4 19,7 18 10 O 1021,4 11 0,0
22.07.2019 08:00:00 20,0 18,7 21 11 O 1021,8 15 -
22.07.2019 07:00:00 20,1 18,6 16 9 O 1021,9 10 0,0
22.07.2019 06:00:00 20,4 18,7 13 7 OZO 1022,1 11 0,0
22.07.2019 05:00:00 20,7 18,8 13 7 O 1022,2 16 -
22.07.2019 04:00:00 20,6 18,7 13 7 O 1022,7 12 0,0
22.07.2019 03:00:00 20,5 18,6 13 7 O 1023,1 12 0,0
22.07.2019 02:00:00 20,4 18,5 13 7 O 1023,6 15 -
22.07.2019 01:00:00 20,8 18,6 15 8 O 1023,9 13 0,0
22.07.2019 00:00:00 20,7 18,6 13 7 O 1024,0 14 0,0
21.07.2019 23:00:00 20,9 18,8 15 8 O 1024,1 18 -
21.07.2019 22:00:00 20,7 18,8 13 7 ONO 1023,6 12 0,0
21.07.2019 21:00:00 21,0 18,9 15 8 ONO 1023,1 13 0,0
21.07.2019 20:00:00 21,7 19,3 11 6 ONO 1022,7 20 -
21.07.2019 19:00:00 21,9 19,3 13 7 O 1022,6 15 0,0
21.07.2019 18:00:00 22,3 19,5 16 9 O 1022,4 16 0,0
21.07.2019 17:00:00 23,4 20,7 15 8 ONO 1022,4 20 -
21.07.2019 16:00:00 23,3 20,2 16 9 ONO 1022,0 18 0,0
21.07.2019 15:00:00 22,5 20,0 24 13 O 1022,0 18 0,0
21.07.2019 14:00:00 21,7 19,4 24 13 O 1022,4 20 -
21.07.2019 13:00:00 22,7 21,0 18 10 O 1022,7 18 0,0
21.07.2019 12:00:00 21,4 20,4 9 5 O 1022,7 16 0,0
21.07.2019 11:00:00 20,1 19,1 11 6 ZO 1022,5 5 -
21.07.2019 10:00:00 20,0 19,0 9 5 OZO 1022,2 - 0,0
21.07.2019 09:00:00 20,0 18,8 15 8 O 1021,8 10 0,0
21.07.2019 08:00:00 19,7 18,5 5 3 O 1021,3 15 -
21.07.2019 07:00:00 19,2 18,0 8 4 O 1021,1 8 0,0
21.07.2019 06:00:00 19,4 18,1 2 1 OZO 1021,1 8 0,0
21.07.2019 05:00:00 19,5 18,0 4 2 NNW 1021,2 12 -
21.07.2019 04:00:00 19,5 17,8 2 1 NNO 1021,3 14 0,0
21.07.2019 03:00:00 19,7 18,0 4 2 ZW 1021,5 6 0,0
21.07.2019 02:00:00 20,2 18,0 8 4 WZW 1021,9 12 -
21.07.2019 01:00:00 20,9 18,5 4 2 NO 1022,0 19 0,0
21.07.2019 00:00:00 20,9 18,7 5 3 N 1021,8 14 0,0
20.07.2019 23:00:00 21,1 18,8 8 4 N 1021,5 12 -
20.07.2019 22:00:00 21,3 18,7 11 6 N 1020,8 17 0,0
20.07.2019 21:00:00 21,3 18,9 11 6 NNW 1020,2 13 0,0
20.07.2019 20:00:00 22,4 19,4 5 3 N 1019,7 12 -
20.07.2019 19:00:00 22,6 19,6 11 6 NNW 1019,3 15 0,0
20.07.2019 18:00:00 23,1 19,5 8 4 NNW 1019,0 19 0,0
20.07.2019 17:00:00 22,7 20,0 11 6 N 1018,6 14 -
20.07.2019 16:00:00 21,9 19,3 15 8 N 1018,5 18 0,0
20.07.2019 15:00:00 21,8 19,2 13 7 NNW 1018,4 17 0,0
20.07.2019 14:00:00 21,9 19,3 11 6 NW 1018,2 15 -
20.07.2019 13:00:00 22,2 19,4 9 5 NW 1017,7 14 0,0
20.07.2019 12:00:00 21,3 18,5 9 5 WNW 1017,6 16 0,0
20.07.2019 11:00:00 21,9 18,5 11 6 WNW 1017,2 15 -
20.07.2019 10:00:00 21,9 18,9 9 5 WZW 1016,7 19 0,0
20.07.2019 09:00:00 20,9 18,8 9 5 WZW 1016,3 16 0,0
20.07.2019 08:00:00 19,6 17,7 9 5 ZW 1015,9 20 -
20.07.2019 07:00:00 19,2 17,3 9 5 ZW 1015,5 14 0,0
20.07.2019 06:00:00 19,1 17,2 8 4 WZW 1015,1 14 0,0
20.07.2019 05:00:00 19,2 17,2 9 5 ZW 1014,8 15 -
20.07.2019 04:00:00 19,3 17,3 8 4 ZW 1014,7 16 0,0
20.07.2019 03:00:00 19,4 17,4 8 4 ZW 1014,6 16 0,0
20.07.2019 02:00:00 19,7 17,5 8 4 WZW 1014,7 20 -
20.07.2019 01:00:00 19,9 17,9 5 3 WZW 1014,9 16 0,0
20.07.2019 00:00:00 19,9 17,5 5 3 WZW 1014,9 17 0,0
19.07.2019 23:00:00 20,1 17,3 5 3 WNW 1014,6 20 -
19.07.2019 22:00:00 20,7 17,3 8 4 NNW 1014,0 19 0,0
19.07.2019 21:00:00 21,8 17,8 5 3 N 1013,9 20 0,0
19.07.2019 20:00:00 22,1 18,3 8 4 NNO 1013,6 25 -
19.07.2019 19:00:00 22,5 18,3 13 7 NO 1013,4 18 0,0
19.07.2019 18:00:00 23,0 18,3 16 9 ONO 1013,8 19 0,0
19.07.2019 17:00:00 23,4 18,5 22 12 ONO 1013,8 25 -
19.07.2019 16:00:00 23,4 18,3 26 14 ONO 1014,1 20 0,0
19.07.2019 15:00:00 23,5 18,4 26 14 ONO 1014,5 20 0,0
19.07.2019 14:00:00 23,6 18,0 28 15 ONO 1014,8 25 -
19.07.2019 13:00:00 23,4 17,6 26 14 ONO 1015,0 20 0,0
19.07.2019 12:00:00 22,8 17,3 26 14 ONO 1015,5 20 0,0
19.07.2019 11:00:00 22,2 17,6 26 14 O 1016,1 25 -
19.07.2019 10:00:00 21,0 17,8 18 10 O 1016,7 19 0,0
19.07.2019 09:00:00 20,2 17,6 9 5 O 1017,0 17 0,0
19.07.2019 08:00:00 18,3 16,6 11 6 ZZO 1017,0 12 -
19.07.2019 07:00:00 16,3 14,8 13 7 ZZO 1017,2 16 0,0
19.07.2019 06:00:00 16,8 15,1 11 6 ZZO 1017,5 13 0,0
19.07.2019 05:00:00 17,2 15,4 9 5 Z 1018,2 18 -
19.07.2019 04:00:00 17,5 15,7 9 5 Z 1018,6 16 0,0
19.07.2019 03:00:00 18,1 15,9 5 3 ZZO 1019,0 18 0,0
19.07.2019 02:00:00 18,5 16,1 5 3 Z 1019,3 20 -
19.07.2019 01:00:00 18,2 15,6 8 4 ZZO 1019,5 19 0,0
19.07.2019 00:00:00 19,0 15,9 4 2 OZO 1019,5 20 0,0
18.07.2019 23:00:00 19,2 15,7 4 2 ZZO 1019,6 20 -
18.07.2019 22:00:00 19,8 15,9 5 3 NNO 1019,3 18 0,0
18.07.2019 21:00:00 21,0 16,4 8 4 N 1019,1 19 0,0
18.07.2019 20:00:00 21,3 16,5 9 5 N 1018,9 20 -
18.07.2019 19:00:00 21,8 17,0 8 4 N 1018,9 19 0,0
18.07.2019 18:00:00 22,1 17,2 11 6 N 1019,0 19 0,0
18.07.2019 17:00:00 22,1 17,0 11 6 N 1019,2 20 -
18.07.2019 16:00:00 21,9 17,1 13 7 NNW 1019,4 20 0,0
18.07.2019 15:00:00 21,9 17,1 13 7 NNW 1019,5 17 0,0
18.07.2019 14:00:00 21,5 16,7 11 6 NNW 1019,6 20 -
18.07.2019 13:00:00 21,4 16,6 11 6 NNW 1019,8 20 0,0
18.07.2019 12:00:00 21,6 17,4 11 6 NW 1019,9 19 0,0
18.07.2019 11:00:00 20,7 16,7 8 4 NW 1019,6 20 -
18.07.2019 10:00:00 21,0 17,0 8 4 WNW 1019,5 19 0,0
18.07.2019 09:00:00 20,2 17,8 8 4 WZW 1019,2 20 0,0
18.07.2019 08:00:00 18,4 16,0 8 4 ZW 1019,2 20 -
18.07.2019 07:00:00 18,5 16,1 8 4 ZW 1019,0 20 0,0
18.07.2019 06:00:00 18,5 16,1 5 3 ZW 1019,0 20 0,0
18.07.2019 05:00:00 18,3 16,1 8 4 WZW 1019,2 12 -
18.07.2019 04:00:00 18,3 16,1 9 5 WZW 1019,3 19 0,0
18.07.2019 03:00:00 18,7 16,1 9 5 WZW 1019,7 20 0,0
18.07.2019 02:00:00 18,9 15,9 8 4 WZW 1020,1 12 -
18.07.2019 01:00:00 19,6 15,3 8 4 WNW 1020,0 19 0,0
18.07.2019 00:00:00 20,1 15,5 13 7 NNW 1020,0 20 0,0
17.07.2019 23:00:00 20,2 15,8 15 8 NNW 1020,1 12 -
17.07.2019 22:00:00 20,1 15,7 13 7 NNW 1019,5 19 0,0
17.07.2019 21:00:00 20,2 16,2 13 7 NNW 1019,3 20 0,0
17.07.2019 20:00:00 20,6 16,6 13 7 N 1018,8 12 -
17.07.2019 19:00:00 20,8 16,6 15 8 N 1018,9 19 0,0
17.07.2019 18:00:00 21,5 17,3 13 7 N 1019,0 18 0,0
17.07.2019 17:00:00 22,3 17,9 13 7 N 1019,1 15 -
17.07.2019 16:00:00 22,2 17,8 13 7 N 1019,0 19 0,0
17.07.2019 15:00:00 22,2 18,2 16 9 N 1018,9 18 0,0

tt = temperatuur
td = dauwpunt
ff = windsnelheid
dd = windrichting
ppp = luchtdruk
vv = zicht
rr = neerslag

Weerstations in de omgeving